Location: Unspecified
(0.0000°N, 0.0000°E)
Time: 17:39:24
(UTC+00:00)

CZ-3C DEB - Pass Details

Date: 11 March 2026
Orbit: 640 x 36740 km, 20.7° (Epoch: 1 May)

Event Time Altitude Azimuth Distance (km) Brightness Sun altitude
Exits shadow 04:01:00 40° 337° (NNW) 2,219 ? -32.2°
Maximum altitude 12:30:04 50° 102° (ESE) 27,614 ? 83.8°
Drops below altitude 10° 14:13:05 10° 113° (ESE) 12,268 ? 59.0°
Sets 14:19:30 0° 113° (ESE) 11,573 ? 57.4°
